Vorticity
18 22 22 10 8 15 18 19 14 14 9 5 4 4 7 11 8 6 8 10 11 14 10 8 6 9 10 9 12 9 9 10 8 7 4 3 2 2 2 5 8 7 6 7
16 19 9 10 12 6 6 10 12 9 8 12 10 11 16 19 10 11 13 10 10 11 13 16 11 14 9 5 21 19 7 6 4 3 3 3 7 7 7 6 8 7 6 5
10 8 8 8 8 10 9 10 8 10 13 13 12 12 18 12 11 13 12 11 12 8 12 11 13 12 17 11 7 8 17 16 11 9 9 8 8 9 10 9 8 8 8 5
7 4 5 7 7 11 16 17 17 15 10 14 11 11 15 8 9 9 6 7 6 8 10 4 5 5 7 10 9 10 10 9 20 7 9 7 7 8 9 9 7 7 6 4
7 2 4 3 12 10 1 4 7 6 7 6 21 18 15 11 6 11 17 13 7 5 -8 16 9 2 4 4 6 1 3 2 11 12 13 8 10 8 8 7 9 7 6 4
1 3 0 9 5 5 7 8 13 12 10 8 6 0 -4 12 15 10 10 8 7 19 22 12 -4 7 5 2 1 5 1 0 6 3 9 2 -3 8 3 3 6 5 8 6
4 4 3 6 12 15 20 18 13 5 -1 6 -5 2 3 14 8 3 9 9 9 17 5 7 6 36 13 9 -0 -1 -1 -0 6 -2 3 -1 13 11 -25 11 12 10 10 4
9 -2 9 26 13 -0 -3 -7 -12 -10 1 0 11 -3 0 12 13 17 8 9 12 6 5 16 16 2 9 12 5 12 18 -0 23 -0 17 10 8 -28 -1 17 15 12 13 12
4 2 11 11 8 -0 3 3 8 8 8 11 14 9 6 -1 12 12 7 5 3 3 3 6 2 8 7 9 11 10 4 25 -5 4 3 2 -7 8 20 10 7 10 9 5
4 7 3 6 8 3 -8 -1 5 5 5 1 8 1 3 13 11 4 4 7 9 7 3 0 -1 13 -0 -9 -11 -5 -8 2 11 7 7 6 1 -1 5 5 7 8 12 12
0 6 6 9 6 -3 -6 -5 11 13 0 6 10 4 12 4 2 5 6 6 7 7 4 5 -2 -4 7 10 4 24 20 17 18 16 27 23 -22 -13 6 -3 3 4 2 13
29 -0 -3 4 -0 -16 -0 -2 8 0 4 12 28 -17 -1 9 8 9 10 22 7 17 22 25 20 22 18 1 17 -29 -21 -15 -12 -8 -6 16 11 8 9 13 10 8 12 20
-8 -6 11 6 7 8 11 18 6 3 6 7 12 6 6 13 10 16 11 15 7 -6 -1 -4 4 -10 -8 -6 8 3 6 6 -4 4 12 13 9 7 5 14 18 17 16 13
6 20 9 -9 -4 7 10 21 26 19 13 10 7 13 11 15 11 10 6 8 -2 5 14 1 5 11 17 8 -4 3 18 16 13 16 14 16 16 16 15 15 11 10 10 8
-19 -12 -6 13 23 14 11 2 16 13 14 16 17 0 17 15 -2 -3 3 9 12 11 7 8 16 15 11 2 11 14 17 18 16 12 13 13 13 20 29 41 44 38 46 48
25 27 20 17 17 12 3 9 13 15 14 15 13 0 10 7 7 4 7 6 11 7 12 14 7 -2 11 13 15 18 15 14 8 15 16 10 16 6 15 29 30 23 19 20
14 12 21 6 22 15 -4 15 14 1 14 19 17 17 13 11 10 9 10 12 15 14 16 16 16 16 13 19 16 9 16 31 26 16 12 5 15 24 37 24 4 19 22 29
13 11 19 10 2 -19 -4 11 4 3 15 10 12 12 12 10 11 14 15 15 12 11 12 11 15 14 18 7 9 18 15 15 6 5 5 19 18 7 27 20 10 25 31 32
8 14 10 13 7 7 6 23 17 11 2 3 2 4 7 14 16 17 16 14 13 13 12 8 5 9 9 12 18 1 11 6 11 4 13 13 -5 5 3 25 13 18 37 39
-5 3 6 9 19 10 16 16 -7 16 9 5 10 12 9 8 10 15 13 17 16 13 14 16 9 -2 7 5 28 24 7 3 9 3 4 2 3 -12 3 2 22 23 7 62
13 18 18 23 7 -9 18 12 11 3 10 -0 13 14 16 14 10 16 14 13 14 14 6 5 30 39 25 31 9 1 4 6 4 2 1 8 1 -2 0 1 -4 29 22 21
17 6 -1 6 13 -11 31 14 7 -3 -1 -1 10 4 9 15 15 14 15 14 15 20 22 21 -25 2 28 23 7 9 10 5 4 3 6 -1 1 2 3 -1 4 6 37 16
7 16 13 3 10 3 6 2 -7 -10 9 21 13 16 19 14 9 11 10 18 10 3 13 3 25 39 16 17 25 9 5 4 7 10 8 6 9 8 1 3 1 -4 33 28
1 -4 3 1 -3 11 4 3 6 24 17 24 25 15 11 8 10 8 9 -0 20 29 -0 2 4 -17 -1 15 12 9 8 8 11 13 13 12 9 2 4 1 -0 7 33 50
23 7 9 14 14 18 24 24 14 13 15 15 11 7 7 9 14 13 6 9 12 -5 -1 17 6 20 10 15 15 11 7 9 7 8 25 30 23 26 21 28 42 19 18 12
21 20 13 13 15 13 17 15 13 13 12 10 8 7 9 12 13 11 16 12 12 13 18 17 5 12 7 6 8 10 5 5 16 14 12 -1 58 52 46 20 19 15 16 58
Height
5793 5796 5799 5798 5798 5799 5799 5799 5800 5800 5797 5795 5797 5796 5795 5792 5790 5786 5789 5789 5788 5788 5789 5790 5790 5790 5792 5794 5796 5794 5793 5791 5790 5789 5789 5788 5788 5788 5789 5788 5789 5788 5788 5790
5786 5788 5787 5787 5789 5790 5790 5791 5792 5791 5788 5788 5790 5790 5788 5783 5780 5779 5780 5777 5778 5779 5781 5783 5783 5783 5783 5784 5789 5786 5782 5781 5780 5779 5779 5779 5779 5779 5780 5780 5780 5778 5779 5782
5776 5778 5779 5780 5779 5779 5781 5783 5782 5781 5781 5779 5779 5782 5780 5776 5772 5769 5768 5770 5770 5771 5772 5775 5776 5776 5776 5776 5774 5778 5776 5773 5770 5771 5771 5770 5770 5770 5771 5771 5770 5770 5771 5773
5767 5768 5769 5770 5771 5770 5772 5770 5769 5771 5771 5770 5770 5770 5775 5769 5764 5762 5762 5763 5765 5765 5767 5767 5768 5768 5768 5769 5768 5767 5767 5764 5762 5762 5762 5762 5763 5763 5763 5763 5762 5761 5761 5761
5759 5759 5759 5760 5762 5761 5762 5761 5760 5761 5761 5762 5761 5759 5765 5761 5758 5756 5757 5757 5758 5758 5760 5760 5761 5762 5761 5760 5760 5758 5756 5755 5753 5753 5754 5753 5753 5753 5753 5753 5753 5751 5749 5748
5749 5749 5750 5752 5752 5752 5753 5754 5753 5752 5753 5755 5755 5751 5757 5754 5752 5746 5745 5746 5748 5750 5750 5751 5752 5752 5752 5750 5750 5748 5746 5744 5744 5743 5744 5743 5743 5744 5742 5741 5740 5738 5737 5736
5737 5739 5741 5742 5744 5745 5747 5748 5746 5748 5749 5750 5745 5743 5744 5745 5742 5740 5737 5737 5735 5738 5741 5743 5745 5742 5738 5737 5737 5737 5735 5733 5731 5731 5730 5729 5731 5732 5731 5730 5729 5727 5726 5724
5725 5730 5730 5733 5735 5736 5738 5741 5740 5741 5741 5740 5740 5736 5733 5733 5733 5731 5728 5727 5727 5726 5729 5731 5731 5732 5732 5730 5728 5724 5723 5724 5721 5719 5718 5716 5717 5718 5719 5717 5714 5713 5713 5711
5714 5718 5720 5723 5724 5727 5730 5729 5734 5730 5729 5729 5731 5726 5722 5722 5721 5721 5718 5714 5714 5716 5718 5720 5719 5719 5719 5718 5715 5714 5712 5711 5708 5706 5705 5705 5705 5705 5704 5703 5702 5700 5699 5697
5702 5707 5711 5714 5717 5717 5717 5720 5719 5719 5720 5719 5718 5715 5710 5709 5708 5708 5708 5708 5704 5706 5707 5708 5710 5713 5712 5708 5704 5701 5697 5694 5692 5690 5690 5689 5687 5688 5688 5688 5686 5687 5686 5683
5693 5696 5701 5702 5703 5707 5709 5705 5705 5707 5707 5706 5706 5705 5702 5696 5692 5696 5697 5696 5694 5693 5694 5696 5698 5699 5697 5693 5690 5685 5682 5680 5679 5678 5675 5672 5672 5673 5673 5672 5671 5670 5671 5670
5684 5683 5688 5690 5690 5694 5694 5694 5693 5692 5695 5693 5694 5695 5687 5685 5685 5682 5685 5683 5681 5681 5680 5680 5683 5683 5682 5681 5678 5672 5669 5668 5664 5663 5660 5657 5655 5654 5653 5652 5651 5651 5651 5650
5673 5670 5675 5675 5677 5681 5683 5682 5682 5679 5681 5679 5681 5686 5679 5672 5670 5672 5672 5673 5671 5669 5668 5665 5670 5670 5668 5667 5664 5660 5653 5650 5648 5646 5645 5642 5639 5636 5633 5630 5630 5629 5629 5629
5657 5658 5659 5662 5665 5668 5669 5670 5667 5664 5663 5662 5665 5670 5675 5664 5662 5663 5660 5658 5655 5655 5651 5651 5653 5654 5653 5651 5649 5645 5641 5636 5633 5630 5627 5624 5622 5619 5615 5612 5609 5606 5605 5604
5640 5642 5643 5645 5646 5650 5654 5658 5652 5649 5650 5650 5655 5652 5664 5653 5654 5650 5646 5642 5642 5640 5637 5640 5642 5641 5639 5638 5635 5631 5627 5624 5619 5614 5611 5607 5606 5602 5596 5591 5586 5581 5578 5578
5625 5629 5631 5631 5633 5635 5641 5645 5638 5639 5639 5638 5639 5639 5646 5645 5636 5632 5630 5630 5629 5625 5625 5625 5625 5625 5625 5623 5621 5618 5615 5611 5607 5603 5599 5595 5590 5585 5580 5574 5569 5564 5561 5559
5614 5617 5619 5619 5620 5622 5625 5633 5629 5628 5625 5622 5622 5627 5627 5625 5623 5620 5620 5619 5617 5611 5610 5610 5610 5610 5609 5608 5607 5604 5601 5598 5595 5591 5588 5584 5579 5574 5567 5558 5554 5548 5544 5543
5603 5605 5608 5609 5610 5608 5621 5618 5614 5613 5615 5610 5611 5614 5616 5613 5612 5610 5610 5607 5605 5601 5597 5595 5594 5594 5594 5593 5592 5590 5588 5586 5583 5581 5579 5575 5571 5566 5557 5547 5541 5534 5530 5529
5590 5592 5593 5595 5595 5601 5612 5606 5601 5596 5602 5599 5600 5601 5602 5600 5600 5600 5597 5595 5593 5590 5587 5584 5581 5581 5581 5581 5580 5579 5578 5576 5574 5573 5569 5567 5562 5556 5548 5538 5531 5525 5517 5514
5575 5578 5579 5578 5578 5582 5599 5591 5584 5578 5589 5588 5588 5585 5586 5587 5586 5586 5584 5583 5580 5577 5576 5574 5572 5571 5571 5570 5569 5568 5568 5567 5565 5562 5559 5556 5552 5546 5541 5531 5523 5516 5508 5500
5560 5562 5565 5563 5563 5567 5587 5575 5566 5564 5578 5570 5574 5573 5571 5572 5573 5571 5570 5569 5567 5566 5566 5564 5562 5560 5559 5559 5559 5558 5559 5557 5554 5552 5549 5545 5542 5538 5532 5527 5518 5510 5501 5494
5547 5549 5551 5552 5551 5553 5568 5564 5554 5552 5554 5559 5560 5559 5559 5557 5558 5558 5558 5556 5555 5555 5555 5555 5552 5551 5550 5550 5549 5549 5548 5546 5543 5542 5539 5535 5532 5529 5524 5520 5513 5506 5498 5492
5532 5535 5537 5540 5541 5544 5547 5545 5540 5539 5541 5543 5544 5544 5544 5543 5544 5546 5546 5545 5544 5545 5546 5544 5542 5541 5542 5541 5540 5539 5538 5535 5533 5531 5528 5524 5520 5517 5514 5512 5508 5502 5495 5489
5519 5519 5520 5522 5529 5526 5531 5531 5527 5528 5529 5528 5529 5530 5531 5531 5532 5534 5534 5533 5533 5533 5535 5535 5535 5534 5532 5530 5530 5530 5528 5526 5522 5519 5515 5511 5506 5503 5501 5499 5499 5498 5492 5485
5508 5508 5507 5506 5509 5510 5517 5514 5511 5509 5510 5512 5513 5515 5517 5517 5519 5519 5519 5521 5521 5521 5523 5525 5525 5523 5522 5520 5522 5520 5518 5515 5512 5507 5502 5497 5491 5487 5485 5486 5487 5489 5489 5487
5498 5494 5488 5492 5491 5494 5502 5497 5495 5494 5495 5496 5497 5499 5502 5503 5506 5507 5508 5508 5510 5511 5512 5513 5514 5514 5512 5512 5511 5510 5508 5505 5501 5497 5492 5485 5477 5470 5471 5475 5477 5478 5479 5480